Location: Hope
(40.9110°N, 74.9680°W)
Time: 23:56:34
(UTC-05:00)

BlueWalker 3 - Visible Passes

Search period start: 29 November 2022 00:00
Search period end: 09 December 2022 00:00
Orbit: 500 x 519 km, 53.2° (Epoch: 29 November)

Date Brightness Start Highest point End Pass type
(mag) Time Alt. Az. Time Alt. Az. Time Alt. Az.
29 Nov 4.2 18:16:40 10° NW 18:18:52 14° N 18:19:26 14° N visible
30 Nov 4.2 17:58:23 10° NW 18:00:33 14° N 18:01:46 13° NNE visible
01 Dec 4.2 17:40:05 10° NW 17:42:13 14° N 17:44:06 11° NNE visible
02 Dec 4.2 17:21:47 10° NW 17:23:53 14° N 17:25:59 10° NNE visible
02 Dec 4.8 19:01:09 10° NNW 19:01:16 10° NNW 19:01:16 10° NNW visible
03 Dec 4.2 17:03:28 10° NW 17:05:33 14° N 17:07:37 10° NNE visible
03 Dec 4.4 18:42:45 10° NNW 18:43:38 13° NNW 18:43:38 13° NNW visible
04 Dec 4.0 18:24:21 10° NNW 18:26:02 16° N 18:26:02 16° N visible
05 Dec 3.7 18:05:55 10° NNW 18:08:29 19° NNE 18:08:29 19° NNE visible
06 Dec 3.5 17:47:30 10° NNW 17:50:23 19° NNE 17:51:00 19° NNE visible
06 Dec 5.0 19:25:42 10° NW 19:25:50 11° NW 19:25:50 11° NW visible
07 Dec 3.5 17:29:04 10° NNW 17:32:00 20° NNE 17:33:37 16° NE visible
07 Dec 4.3 19:07:17 10° NW 19:08:27 19° NW 19:08:27 19° NW visible
08 Dec 3.5 17:10:37 10° NNW 17:13:37 20° NNE 17:16:22 11° ENE visible
08 Dec 3.2 18:48:51 10° NW 18:51:13 35° NW 18:51:13 35° NW visible
